Погода в Палембанге

Индонезия     2°57′54″S   104°44′47″E
темп.,
°C
ветер,
м/с
пор.,
м/с
влажн.,
%
обл.,
%
осадки,
мм/ч
давл.,
гПа
погр.,
м
2 марта, вт
вт201:00+24с249260 0.3 1011114
04:00+24всв119484 0.4 101024
07:00+25сз249283 0.6 1012169
10:00+28сз2481100 0.0 1012503
13:00+32с235977 0.9 10091387
16:00+31с236563 3.2 10071061
19:00+26ссв268336 3.6 1010155
22:00+24ссз2286100 0.0 101297
3 марта, ср
ср301:00+24ссз119094 0.4 101224
04:00+24з1293100 0.0 1010115
07:00+24сз2393100 0.0 1011159
10:00+28сз357887 0.0 1012760
13:00+32ссз345664 0.1 10101494
16:00+30ссв346724 0.6 1007894
19:00+26ссв258623 1.1 1010166
22:00+24ссв26900 0.2 1012191
4 марта, чт
чт401:00+24с12940 0.2 101229
04:00+23сз129752 0.3 101025
07:00+24с129467 0.4 1012110
10:00+29с247273 0.0 1013959
13:00+29юз227386 0.1 1010400
16:00+30св237396 4.8 1007415
19:00+26зюз128667 6.7 100924
22:00+25ссв118825 0.0 101224
5 марта, пт
пт501:00+24ссз119258 1.3 101127
04:00+24с1195100 7.6 101054
07:00+24сз0194100 8.4 101225
10:00+28ссз227999 0.0 1012537
13:00+33с125886 0.1 10091235
16:00+32ссз326081 0.4 10071444
19:00+26ссв278889 1.0 1009215
22:00+25ссв26920 0.0 1011175
6 марта, сб
сб601:00+24ссв12951 0.0 101136
04:00+24с129755 0.0 100931
07:00+24с129562 0.8 101195
10:00+29с3572100 1.8 1012715
13:00+33ссз345556 1.8 10091575
16:00+33с335751 0.1 10071736
19:00+27ссв258343 1.3 1009143
22:00+26с278965 0.4 1011270